Temp
3 3 3 3 3 3 3 3 3 2 2 1 2 2 2 0 0 2 1 0 1 2 2 2 2 3 3 3 3 3 4 4 4 5 5 5 5 5 5 6 5 5 5
2 2 2 2 2 2 2 2 2 2 2 2 1 1 1 1 1 1 -0 0 -0 1 1 1 2 2 3 3 3 3 3 3 3 3 4 4 5 5 5 5 5 5 5
2 2 2 1 1 1 1 1 1 1 1 1 2 1 1 1 0 0 0 0 -1 -0 0 1 2 2 2 2 3 3 3 3 3 3 3 4 5 4 5 5 5 5 5
1 1 1 1 0 0 -0 -0 -0 -0 -0 -0 -0 1 1 1 1 0 -0 -0 0 -0 -0 -0 0 0 1 1 2 2 2 2 2 3 3 3 4 4 4 5 5 5 5
0 0 0 -0 -0 -0 -1 -1 -1 -1 -1 -1 -1 -1 -0 0 0 0 0 0 0 -0 -0 -1 -1 -1 -1 1 1 2 1 2 1 2 2 2 3 4 4 4 5 5 4
-0 -1 -1 -1 -1 -1 -1 -2 -2 -2 -2 -1 -1 -1 -1 -0 -1 -1 -0 -0 0 -0 0 -0 -1 -0 -1 0 0 1 0 1 1 1 1 1 2 3 4 4 4 5 4
-1 -2 -2 -2 -2 -2 -3 -3 -2 -2 -2 -3 -3 -2 -2 -2 -1 -2 -1 -1 -1 -1 -0 -0 -0 -0 -0 0 -0 -0 0 0 0 1 1 1 1 2 3 4 4 4 4
-3 -3 -3 -3 -4 -4 -4 -4 -4 -4 -4 -4 -3 -4 -4 -2 -3 -3 -2 -2 -1 -1 -1 -1 -1 -1 -1 -1 -1 -1 -0 -0 -0 1 1 1 1 1 2 3 4 4 4
-4 -5 -5 -5 -5 -5 -5 -5 -5 -5 -5 -5 -5 -5 -5 -4 -4 -3 -3 -4 -3 -2 -2 -2 -1 -2 -1 -0 -1 -1 -0 -0 -0 0 0 0 1 0 0 2 3 3 3
-4 -5 -6 -7 -7 -6 -6 -7 -6 -6 -6 -6 -5 -6 -6 -6 -6 -4 -4 -4 -4 -4 -4 -3 -2 -2 -2 -1 -1 -0 -1 -1 -1 -1 0 0 1 0 -0 0 1 2 2
-5 -6 -6 -7 -8 -7 -7 -7 -8 -8 -7 -8 -8 -7 -6 -6 -6 -6 -5 -4 -4 -4 -4 -4 -4 -4 -3 -2 -2 -2 -1 -1 -1 -1 -1 -0 0 0 -0 1 -0 1 1
-6 -6 -7 -7 -7 -7 -7 -8 -9 -9 -8 -8 -8 -8 -8 -7 -7 -7 -6 -6 -6 -4 -4 -4 -4 -4 -3 -4 -3 -2 -2 -1 -2 -3 -2 -1 -1 -1 -0 -0 -1 -0 -0
-5 -6 -7 -7 -7 -8 -8 -9 -8 -8 -8 -9 -9 -8 -8 -8 -8 -8 -8 -7 -7 -6 -5 -5 -5 -4 -4 -4 -3 -3 -3 -2 -2 -3 -2 -2 -2 -1 -1 -1 -0 -1 -1
-6 -6 -6 -7 -8 -8 -8 -8 -9 -9 -9 -10 -9 -9 -9 -9 -9 -9 -9 -9 -7 -7 -6 -5 -6 -5 -4 -4 -4 -4 -3 -3 -2 -3 -3 -3 -2 -1 -2 -1 -1 -1 -1
-5 -6 -6 -7 -7 -8 -9 -9 -9 -10 -11 -11 -10 -10 -10 -10 -10 -10 -10 -11 -10 -8 -6 -6 -6 -6 -7 -6 -5 -4 -4 -4 -4 -3 -3 -3 -3 -3 -2 -2 -1 -0 -1
-6 -6 -7 -9 -9 -9 -10 -11 -12 -12 -12 -11 -11 -11 -11 -11 -11 -11 -11 -12 -11 -11 -9 -8 -8 -8 -7 -7 -7 -6 -5 -4 -4 -4 -3 -3 -4 -2 -2 -2 -1 -1 -1
-7 -8 -9 -10 -10 -10 -12 -12 -13 -12 -12 -12 -12 -12 -12 -12 -12 -13 -13 -13 -12 -12 -12 -10 -10 -9 -9 -8 -8 -9 -7 -7 -6 -5 -4 -3 -3 -3 -3 -2 -2 -1 -1
-9 -10 -10 -11 -11 -12 -13 -13 -13 -13 -13 -13 -13 -13 -13 -13 -13 -13 -13 -13 -13 -13 -13 -11 -12 -11 -10 -10 -9 -9 -10 -8 -8 -8 -7 -5 -4 -3 -3 -3 -3 -2 -2
-10 -11 -11 -12 -13 -13 -13 -13 -13 -14 -14 -13 -13 -13 -13 -13 -13 -13 -13 -13 -13 -13 -13 -12 -12 -12 -12 -11 -11 -11 -10 -11 -9 -10 -9 -7 -7 -6 -5 -3 -3 -3 -3
-12 -12 -12 -13 -13 -13 -13 -14 -14 -14 -14 -13 -14 -14 -14 -14 -14 -14 -14 -14 -14 -14 -13 -13 -12 -12 -12 -12 -12 -11 -11 -11 -11 -10 -9 -10 -9 -7 -6 -5 -4 -3 -4
-13 -13 -13 -13 -14 -14 -14 -14 -14 -14 -14 -14 -14 -15 -15 -15 -15 -15 -15 -14 -14 -14 -14 -13 -12 -12 -12 -12 -12 -13 -12 -11 -11 -11 -10 -10 -10 -8 -7 -6 -5 -4 -4
-13 -13 -14 -14 -14 -14 -14 -14 -15 -14 -14 -14 -14 -14 -14 -14 -14 -15 -15 -15 -14 -14 -14 -13 -12 -12 -12 -12 -12 -12 -13 -13 -11 -10 -11 -10 -10 -10 -9 -8 -7 -5 -4
-14 -14 -14 -14 -14 -14 -14 -15 -15 -15 -14 -14 -14 -14 -15 -15 -15 -15 -15 -15 -15 -15 -15 -14 -12 -12 -12 -12 -12 -12 -12 -14 -12 -11 -11 -11 -10 -10 -11 -9 -8 -7 -6
-14 -14 -14 -14 -14 -14 -15 -15 -15 -15 -14 -15 -15 -15 -15 -15 -15 -15 -15 -15 -15 -15 -15 -14 -14 -13 -13 -13 -13 -12 -12 -13 -12 -12 -12 -11 -11 -10 -11 -11 -10 -8 -7
-14 -14 -14 -14 -14 -14 -15 -15 -15 -15 -15 -15 -15 -15 -15 -15 -15 -15 -15 -15 -15 -14 -14 -14 -14 -14 -14 -14 -14 -13 -12 -12 -12 -12 -13 -13 -11 -11 -11 -11 -11 -9 -8
-15 -14 -14 -15 -14 -15 -15 -15 -15 -16 -16 -16 -15 -15 -15 -15 -15 -15 -15 -15 -15 -15 -15 -15 -15 -15 -14 -14 -14 -14 -13 -13 -13 -13 -13 -13 -12 -12 -12 -12 -11 -10 -9
Height
3131 3130 3128 3128 3127 3127 3127 3125 3125 3124 3120 3119 3118 3115 3112 3110 3110 3114 3112 3115 3118 3121 3124 3125 3127 3130 3130 3133 3136 3137 3140 3144 3147 3150 3153 3155 3155 3157 3158 3160 3161 3163 3166
3126 3125 3124 3123 3122 3120 3119 3119 3119 3118 3117 3114 3112 3110 3108 3108 3108 3107 3105 3106 3108 3112 3114 3116 3117 3121 3121 3123 3126 3129 3131 3135 3139 3143 3146 3149 3150 3151 3152 3154 3156 3158 3161
3120 3118 3116 3116 3114 3113 3112 3110 3109 3108 3107 3108 3107 3105 3104 3102 3101 3101 3100 3102 3099 3098 3101 3104 3106 3108 3111 3113 3116 3119 3123 3126 3128 3132 3137 3140 3144 3145 3146 3147 3150 3153 3156
3114 3111 3109 3108 3106 3104 3104 3104 3103 3101 3099 3098 3098 3097 3096 3096 3095 3094 3093 3093 3093 3092 3090 3090 3094 3096 3100 3103 3107 3110 3114 3116 3118 3122 3125 3130 3136 3138 3139 3140 3143 3146 3149
3107 3104 3101 3101 3097 3095 3094 3095 3094 3093 3092 3090 3088 3087 3087 3086 3085 3085 3084 3085 3084 3084 3085 3084 3082 3083 3088 3093 3095 3100 3104 3107 3109 3111 3116 3118 3124 3129 3131 3132 3135 3138 3142
3100 3096 3092 3091 3090 3087 3085 3085 3085 3084 3082 3081 3079 3077 3076 3077 3076 3075 3074 3072 3071 3075 3077 3077 3076 3078 3082 3084 3084 3088 3093 3095 3099 3101 3104 3108 3112 3118 3122 3125 3127 3130 3134
3091 3090 3085 3081 3080 3080 3079 3077 3075 3074 3073 3071 3067 3067 3066 3064 3064 3064 3063 3061 3061 3064 3066 3066 3068 3070 3072 3075 3076 3077 3082 3082 3088 3091 3094 3099 3103 3106 3111 3116 3120 3122 3126
3078 3076 3077 3074 3070 3069 3069 3069 3068 3065 3063 3061 3058 3054 3051 3054 3052 3050 3049 3050 3052 3053 3053 3056 3057 3059 3060 3063 3066 3070 3072 3072 3075 3079 3083 3088 3090 3096 3101 3106 3110 3114 3118
3070 3067 3064 3062 3062 3060 3059 3059 3059 3055 3052 3051 3050 3047 3042 3037 3037 3039 3039 3038 3040 3042 3043 3044 3046 3049 3050 3054 3057 3061 3062 3062 3065 3068 3071 3073 3072 3077 3088 3093 3099 3105 3109
3065 3063 3059 3054 3052 3050 3047 3047 3045 3046 3043 3040 3039 3039 3037 3033 3026 3020 3026 3026 3028 3029 3031 3033 3033 3036 3039 3040 3045 3046 3049 3052 3054 3057 3060 3064 3067 3069 3073 3082 3088 3093 3099
3057 3054 3050 3046 3043 3040 3038 3036 3035 3033 3032 3029 3027 3026 3025 3024 3022 3015 3006 3011 3013 3016 3017 3019 3022 3024 3026 3028 3031 3035 3038 3040 3043 3045 3048 3054 3057 3058 3061 3067 3077 3082 3088
3048 3045 3041 3037 3035 3033 3030 3026 3024 3022 3019 3019 3018 3016 3013 3012 3009 3007 3000 2998 2997 3000 3003 3006 3008 3011 3014 3015 3018 3022 3026 3029 3031 3035 3038 3042 3045 3050 3052 3055 3061 3069 3077
3039 3034 3030 3027 3025 3022 3017 3014 3012 3011 3010 3008 3007 3005 3002 3000 2998 2995 2992 2986 2984 2986 2987 2990 2993 2997 3001 3003 3006 3010 3014 3018 3020 3023 3027 3031 3034 3038 3040 3045 3050 3054 3064
3027 3021 3018 3013 3009 3007 3004 3005 3003 3001 2998 2996 2994 2992 2989 2987 2985 2983 2980 2977 2972 2971 2974 2976 2980 2983 2986 2989 2993 2997 2999 3004 3006 3009 3014 3018 3022 3026 3031 3036 3039 3044 3047
3012 3010 3007 3002 2999 2997 2997 2993 2989 2987 2985 2982 2980 2978 2976 2974 2972 2971 2969 2967 2963 2956 2957 2963 2965 2969 2971 2974 2977 2982 2987 2991 2996 2999 3003 3005 3008 3011 3017 3022 3025 3028 3035
3001 2997 2995 2993 2990 2987 2983 2980 2978 2976 2973 2970 2967 2964 2961 2960 2958 2956 2955 2954 2953 2948 2940 2948 2950 2953 2956 2960 2962 2965 2970 2975 2980 2983 2988 2992 2996 2999 3004 3009 3014 3015 3019
2991 2989 2985 2981 2978 2974 2972 2969 2967 2964 2960 2956 2954 2950 2948 2946 2944 2943 2942 2941 2940 2939 2932 2933 2936 2938 2940 2944 2949 2951 2954 2959 2962 2968 2971 2976 2980 2984 2989 2993 2996 3001 3003
2982 2978 2974 2970 2967 2964 2961 2958 2954 2951 2946 2942 2939 2937 2934 2934 2932 2930 2929 2928 2927 2926 2923 2915 2919 2922 2924 2928 2932 2936 2939 2941 2947 2950 2955 2960 2964 2969 2974 2978 2983 2987 2992
2972 2968 2964 2961 2958 2954 2950 2946 2942 2936 2932 2929 2927 2924 2921 2919 2918 2917 2916 2915 2914 2913 2912 2907 2905 2908 2910 2914 2917 2922 2925 2928 2932 2937 2938 2941 2948 2953 2957 2962 2968 2974 2979
2962 2959 2955 2952 2948 2944 2939 2933 2928 2923 2919 2916 2912 2909 2906 2904 2902 2901 2900 2900 2899 2897 2896 2894 2892 2894 2895 2900 2902 2906 2910 2915 2918 2923 2927 2928 2930 2936 2940 2946 2952 2957 2963
2954 2950 2946 2942 2936 2932 2926 2920 2914 2910 2905 2901 2898 2895 2893 2890 2888 2885 2883 2882 2881 2880 2879 2879 2877 2879 2882 2886 2889 2893 2895 2901 2904 2908 2912 2915 2918 2921 2925 2930 2935 2941 2946
2946 2941 2936 2931 2925 2920 2914 2909 2902 2896 2892 2888 2884 2881 2877 2874 2872 2870 2868 2866 2865 2863 2863 2863 2862 2863 2867 2872 2876 2880 2884 2887 2892 2898 2898 2903 2907 2908 2910 2914 2918 2923 2930
2937 2932 2926 2920 2915 2909 2903 2897 2891 2885 2879 2874 2870 2865 2861 2860 2858 2855 2854 2853 2852 2851 2850 2851 2849 2851 2853 2858 2864 2867 2873 2877 2878 2885 2887 2889 2896 2898 2900 2902 2904 2910 2916
2928 2922 2916 2911 2904 2899 2893 2886 2880 2873 2866 2861 2857 2853 2849 2847 2846 2843 2840 2838 2838 2839 2840 2839 2838 2842 2843 2846 2849 2853 2859 2862 2866 2870 2874 2876 2884 2887 2890 2890 2891 2897 2903
2919 2913 2907 2901 2894 2889 2883 2875 2867 2860 2855 2851 2848 2844 2839 2834 2833 2832 2826 2823 2823 2825 2827 2828 2828 2830 2834 2836 2838 2840 2843 2848 2851 2858 2863 2867 2872 2876 2878 2880 2880 2883 2890
2910 2904 2898 2892 2885 2878 2871 2864 2857 2851 2846 2842 2837 2831 2827 2822 2819 2817 2814 2812 2810 2812 2815 2816 2816 2817 2821 2825 2828 2830 2833 2835 2839 2845 2854 2859 2863 2868 2869 2871 2871 2872 2877
Wind_Speed
24 23 23 23 24 23 23 23 23 22 22 19 18 20 20 19 18 23 42 45 38 39 40 38 36 36 35 35 35 31 31 31 31 37 37 34 30 28 26 26 26 25 25
26 26 26 26 27 28 29 28 26 25 24 25 23 19 18 17 18 25 40 34 39 47 39 39 34 36 40 34 34 36 36 33 33 34 38 39 36 32 29 27 28 28 27
33 33 33 33 32 32 31 31 30 28 27 24 23 24 22 22 25 21 18 28 27 39 42 38 44 39 35 34 33 35 33 35 39 38 38 42 41 37 33 30 30 30 29
34 36 36 36 37 37 34 32 33 33 31 29 26 26 28 28 27 29 29 29 28 27 30 40 50 48 38 39 37 37 36 36 39 41 39 39 45 43 38 34 32 32 31
33 35 36 35 37 38 38 35 34 34 34 33 33 32 31 33 31 32 35 35 35 34 33 32 34 29 36 42 40 41 43 39 36 41 44 39 44 46 43 39 36 34 33
30 33 35 35 36 37 39 36 36 36 36 37 39 40 37 35 35 34 36 39 42 40 38 36 36 35 39 41 38 41 44 45 46 43 45 45 44 47 46 44 40 37 36
31 30 34 38 38 37 36 37 38 39 41 41 41 39 39 39 37 36 38 42 45 43 42 40 38 38 37 38 39 40 43 46 48 48 47 48 47 47 49 47 45 41 38
37 36 33 35 38 36 35 37 37 38 36 39 41 40 40 37 36 36 39 39 43 46 46 43 40 39 38 40 38 36 36 42 43 46 46 48 53 47 48 49 48 44 41
35 33 35 34 35 38 40 40 38 34 34 32 33 34 39 42 40 37 37 38 38 41 44 45 45 42 37 34 40 41 40 40 41 46 48 54 47 46 47 46 48 47 44
42 40 37 38 39 41 44 47 44 44 39 35 34 36 38 41 45 47 41 40 38 40 41 44 46 47 45 36 36 31 40 39 38 42 44 45 57 57 49 44 48 48 46
43 39 41 44 43 38 38 41 53 41 40 40 41 41 43 44 44 46 51 46 43 41 43 45 46 50 46 48 43 42 34 41 42 42 41 48 43 52 46 40 52 48 47
46 48 50 48 45 45 53 57 35 46 46 44 42 43 45 48 48 45 48 47 46 44 43 42 46 49 50 51 55 44 44 33 44 44 46 44 45 51 50 54 49 52 52
49 52 50 54 56 56 59 50 59 59 45 42 41 44 46 47 45 44 44 48 48 44 44 43 42 43 46 49 50 53 51 50 35 47 48 50 51 47 43 49 54 50 57
52 56 58 59 61 61 62 56 51 42 40 41 42 44 45 45 44 42 43 44 48 47 44 44 42 42 42 43 44 46 50 58 60 50 47 52 54 54 52 49 53 53 55
58 59 62 59 58 54 50 44 41 40 39 42 45 46 45 44 43 41 41 41 44 50 49 44 44 41 41 42 43 44 45 49 56 60 54 52 51 57 53 51 50 56 64
57 59 54 47 45 45 42 35 36 38 42 44 44 43 43 42 42 41 40 40 42 46 54 48 47 46 44 43 47 47 45 46 48 53 58 55 57 62 53 55 58 53 63
49 46 40 41 42 37 34 35 38 41 43 44 42 40 40 40 41 41 41 41 43 43 51 53 51 50 50 50 48 48 51 46 48 48 52 60 68 60 59 63 60 59 58
37 39 41 37 33 34 36 39 42 44 43 41 39 38 39 38 39 41 42 42 43 44 48 56 52 53 54 54 52 50 50 56 48 51 52 53 59 64 66 63 74 69 48
36 34 34 34 36 37 40 41 42 41 40 39 40 41 41 40 40 40 42 44 46 46 47 52 55 54 54 53 52 49 47 49 50 49 46 55 58 55 63 71 71 71 66
30 33 34 35 37 39 39 40 40 40 41 42 43 42 41 41 42 42 43 43 45 48 49 52 54 54 53 51 51 50 49 47 46 48 47 49 49 58 58 66 69 71 72
32 34 37 39 39 38 39 39 42 44 44 43 42 42 43 44 45 47 47 47 47 47 48 50 53 54 54 52 52 48 49 47 46 44 45 43 47 53 61 63 68 73 74
34 38 39 39 39 39 40 42 42 42 43 44 45 45 45 45 44 43 42 42 42 43 44 45 48 50 51 51 53 52 47 46 48 46 45 46 43 42 52 59 61 69 77
37 38 37 38 38 40 40 39 40 44 46 47 46 43 40 36 35 35 35 36 38 39 41 41 45 47 48 48 51 53 51 43 50 44 44 44 40 40 40 51 59 63 62
36 35 36 37 39 37 38 40 42 44 46 41 37 35 36 34 32 33 35 36 36 36 39 40 43 41 42 43 46 48 51 54 55 50 46 47 43 37 36 37 44 51 55
34 35 36 37 37 37 37 40 43 43 37 35 34 34 36 36 33 32 36 37 36 36 34 38 41 42 40 40 41 43 49 51 58 53 46 44 42 36 35 32 35 41 47
35 36 37 37 36 37 39 41 36 33 33 35 34 35 35 36 34 31 32 33 35 35 31 30 33 37 38 39 39 42 43 49 53 56 49 43 38 37 39 31 30 36 40
Wind_Direction
301 302 296 296 294 294 294 294 294 297 304 304 298 290 293 282 263 242 246 242 243 237 240 241 242 244 243 249 249 249 248 249 251 245 242 240 237 241 243 241 238 237 237
290 289 287 285 287 288 289 287 285 285 286 293 302 297 281 275 251 259 243 237 247 241 237 238 239 245 247 246 247 248 245 248 248 249 244 242 238 238 241 242 240 236 236
293 293 292 292 289 284 284 284 284 284 284 283 285 290 286 268 256 255 242 240 253 242 231 230 235 237 242 240 243 244 247 241 243 243 250 244 241 238 238 240 240 237 236
291 292 290 290 287 286 283 280 280 282 287 288 286 284 284 282 268 255 245 245 254 258 257 243 234 235 238 243 243 243 244 247 240 241 240 243 240 238 236 237 239 238 237
293 292 291 288 286 285 283 283 281 281 283 285 286 284 281 277 277 267 257 252 251 252 255 263 235 233 238 242 240 244 241 241 236 241 240 237 239 238 237 235 236 237 237
295 293 290 286 284 283 285 285 283 283 284 284 284 283 279 276 272 268 262 258 253 249 249 250 247 241 240 248 244 241 243 241 242 243 241 235 235 235 235 237 236 235 234
298 291 287 287 285 282 282 284 288 292 296 298 294 285 277 276 268 267 260 256 255 251 251 246 245 247 244 246 245 243 248 242 243 243 244 241 239 235 233 233 237 235 233
306 297 288 283 282 282 280 283 290 292 294 299 294 292 288 273 269 266 266 261 256 254 248 243 242 241 242 244 242 244 246 239 242 241 242 241 234 236 236 233 234 236 234
297 290 289 280 275 277 284 288 295 287 296 301 301 301 298 293 286 273 264 263 259 255 253 245 239 239 244 245 244 247 244 240 245 245 243 242 244 233 232 235 234 236 235
292 288 279 272 274 278 282 293 294 291 293 293 295 298 299 299 298 291 276 268 257 254 251 249 241 239 239 245 236 243 244 238 238 233 247 242 245 242 232 236 237 235 237
288 278 268 268 270 266 278 275 288 291 289 288 290 294 297 299 296 292 288 279 271 257 248 248 248 240 238 239 239 239 249 246 242 239 243 234 244 238 239 238 240 237 237
283 277 272 269 267 270 274 284 267 279 277 279 287 293 295 296 294 288 284 281 276 269 261 251 247 246 245 244 239 241 237 252 243 243 238 241 242 234 243 248 235 234 241
282 279 267 264 264 268 273 264 281 289 285 284 288 290 292 291 287 283 279 279 277 270 266 261 257 250 245 246 246 244 242 239 243 240 239 242 241 245 241 255 251 244 234
278 278 280 266 265 267 270 283 284 280 284 288 291 292 290 286 283 280 278 277 275 272 268 265 262 260 254 250 244 243 242 237 237 244 247 239 238 241 238 239 252 254 234
282 286 287 279 283 283 283 280 284 292 297 298 295 290 286 282 280 278 275 274 274 276 270 266 265 261 259 258 254 246 240 241 243 245 244 237 238 244 242 241 242 250 246
287 289 286 294 285 284 284 291 296 300 298 294 290 287 284 280 277 276 273 270 267 270 273 271 269 267 262 255 255 255 250 245 240 242 241 241 239 239 231 233 239 237 249
283 291 296 292 291 291 297 300 301 299 296 294 291 285 280 277 276 272 269 268 267 268 270 270 268 265 263 260 257 258 258 252 252 246 242 238 243 237 235 236 238 239 243
293 297 297 293 297 302 304 303 301 299 296 293 289 286 284 279 273 272 271 270 269 268 268 269 268 265 261 260 258 257 257 257 252 255 246 241 244 248 240 239 237 237 244
304 296 294 303 309 307 302 300 299 296 292 290 290 287 284 280 275 271 267 268 268 267 265 266 267 267 267 266 264 259 258 258 254 249 255 252 242 242 243 242 243 245 238
297 301 307 311 308 305 303 302 299 296 295 294 292 288 284 280 278 276 273 270 267 265 263 261 259 259 260 260 261 260 256 258 258 256 254 261 259 242 240 240 241 242 243
303 307 308 311 311 307 306 304 301 300 297 293 289 286 286 285 283 280 279 277 273 269 265 262 260 258 256 254 255 258 258 256 254 254 254 255 260 253 243 243 239 238 242
307 309 312 310 310 309 307 304 300 296 294 294 295 293 288 285 282 278 274 273 272 269 264 260 258 256 254 253 253 253 255 261 258 254 256 255 258 256 246 246 245 241 243
309 311 311 311 310 307 304 301 299 299 299 299 297 293 289 286 282 279 274 269 264 263 264 262 257 255 256 253 252 249 251 251 257 256 259 258 255 256 257 246 248 247 245
311 314 312 310 308 308 305 304 303 301 301 299 296 294 292 289 285 281 276 268 264 259 256 259 261 259 257 257 255 253 248 247 251 254 255 257 254 252 261 259 252 247 242
314 313 311 312 311 309 307 306 307 305 303 301 300 295 291 287 284 279 275 274 268 259 256 255 256 256 253 252 253 252 250 246 245 247 249 254 252 255 261 256 258 243 238
315 314 314 313 312 313 314 312 308 305 305 306 306 303 298 292 287 282 277 275 271 265 259 253 255 256 253 248 247 248 249 247 245 243 242 248 249 255 257 270 261 242 240